• Em Portugal
  • Lista de países
  • Para 7 dias
  • Temperatura da água
  • Mapas de satélite
  • Mapa do tempo
  • Widgets de tempo
  • user-avatar
    Iniciar Sessão

    Previsão horária em Monte Carlo

    Hoje, 12 Dezembro, Terça-feira

    Tempo Temperatura Precipitação Vento Pressão Humidade
    00:00 +6°C° 0 mm 9 m/s 737 mmHg 90%
    01:00 +6°C° 0 mm 8 m/s 738 mmHg 88%
    02:00 +5°C° 0 mm 8 m/s 739 mmHg 87%
    03:00 +5°C° 0 mm 7 m/s 740 mmHg 85%
    04:00 +4°C° 0 mm 7 m/s 740 mmHg 84%
    05:00 +4°C° 0 mm 7 m/s 741 mmHg 83%
    06:00 +4°C° 0 mm 6 m/s 742 mmHg 81%
    07:00 +5°C° 0 mm 6 m/s 742 mmHg 78%
    08:00 +7°C° 0 mm 6 m/s 743 mmHg 76%
    09:00 +8°C° 0 mm 6 m/s 744 mmHg 73%
    10:00 +9°C° 0 mm 6 m/s 744 mmHg 69%
    11:00 +9°C° 0 mm 7 m/s 744 mmHg 66%
    12:00 +10°C° 0 mm 7 m/s 745 mmHg 62%
    13:00 +10°C° 0 mm 7 m/s 745 mmHg 65%
    14:00 +9°C° 0 mm 7 m/s 745 mmHg 68%
    15:00 +9°C° 0 mm 7 m/s 746 mmHg 71%
    16:00 +6°C° 0 mm 7 m/s 746 mmHg 73%
    17:00 +5°C° 0 mm 7 m/s 747 mmHg 75%
    18:00 +3°C° 0 mm 7 m/s 747 mmHg 77%
    19:00 +3°C° 0 mm 7 m/s 748 mmHg 74%
    20:00 +3°C° 0 mm 7 m/s 748 mmHg 70%
    21:00 +2°C° 0 mm 6 m/s 749 mmHg 67%
    22:00 +2°C° 0 mm 6 m/s 749 mmHg 65%
    23:00 +2°C° 0 mm 6 m/s 749 mmHg 64%

    Amanhã, 13 Dezembro, Quarta-feira

    Tempo Temperatura Precipitação Vento Pressão Humidade
    00:00 +2°C° 0 mm 6 m/s 750 mmHg 62%
    01:00 +2°C° 0 mm 5 m/s 750 mmHg 60%
    02:00 +2°C° 0 mm 5 m/s 750 mmHg 59%
    03:00 +2°C° 0 mm 5 m/s 750 mmHg 57%
    04:00 +2°C° 0 mm 5 m/s 750 mmHg 56%
    05:00 +3°C° 0 mm 4 m/s 751 mmHg 54%
    06:00 +1°C° 0 mm 4 m/s 751 mmHg 53%
    07:00 +4°C° 0 mm 4 m/s 751 mmHg 51%
    08:00 +5°C° 0 mm 3 m/s 752 mmHg 49%
    09:00 +7°C° 0 mm 3 m/s 752 mmHg 46%
    10:00 +7°C° 0 mm 4 m/s 752 mmHg 47%
    11:00 +8°C° 0 mm 4 m/s 752 mmHg 47%
    12:00 +9°C° 0 mm 5 m/s 752 mmHg 47%
    13:00 +9°C° 0 mm 5 m/s 751 mmHg 52%
    14:00 +8°C° 0 mm 6 m/s 751 mmHg 56%
    15:00 +8°C° 0 mm 7 m/s 751 mmHg 60%
    16:00 +6°C° 0 mm 7 m/s 751 mmHg 60%
    17:00 +5°C° 0 mm 8 m/s 751 mmHg 60%
    18:00 +4°C° 0 mm 8 m/s 751 mmHg 60%
    19:00 +3°C° 0 mm 9 m/s 751 mmHg 61%
    20:00 +3°C° 0 mm 9 m/s 751 mmHg 61%
    21:00 +3°C° 0 mm 9 m/s 751 mmHg 61%
    22:00 +5°C° 0 mm 9 m/s 750 mmHg 64%
    23:00 +5°C° 0 mm 10 m/s 750 mmHg 68%

    Depois de amanhã, 14 Dezembro, Quinta-feira

    Tempo Temperatura Precipitação Vento Pressão Humidade
    00:00 +5°C° 0 mm 10 m/s 749 mmHg 72%
    01:00 +5°C° 0 mm 10 m/s 749 mmHg 74%
    02:00 +5°C° 0 mm 10 m/s 748 mmHg 77%
    03:00 +6°C° 0 mm 10 m/s 748 mmHg 79%
    04:00 +6°C° 0,2 mm 10 m/s 747 mmHg 82%
    05:00 +6°C° 0,2 mm 10 m/s 747 mmHg 84%
    06:00 +7°C° 0,2 mm 10 m/s 747 mmHg 87%
    07:00 +7°C° 0,1 mm 10 m/s 746 mmHg 85%
    08:00 +8°C° 0,1 mm 10 m/s 746 mmHg 83%
    09:00 +8°C° 0,1 mm 9 m/s 746 mmHg 81%
    10:00 +9°C° 0 mm 10 m/s 746 mmHg 75%
    11:00 +11°C° 0 mm 10 m/s 745 mmHg 70%
    12:00 +12°C° 0 mm 10 m/s 745 mmHg 64%
    13:00 +12°C° 0 mm 10 m/s 745 mmHg 66%
    14:00 +11°C° 0 mm 10 m/s 745 mmHg 68%
    15:00 +9°C° 0 mm 10 m/s 744 mmHg 70%
    16:00 +8°C° 0 mm 10 m/s 744 mmHg 71%
    17:00 +7°C° 0 mm 10 m/s 744 mmHg 72%
    18:00 +6°C° 0 mm 10 m/s 744 mmHg 73%
    19:00 +6°C° 0 mm 10 m/s 744 mmHg 74%
    20:00 +6°C° 0 mm 10 m/s 744 mmHg 75%
    21:00 +6°C° 0 mm 11 m/s 745 mmHg 77%
    22:00 +6°C° 0 mm 10 m/s 744 mmHg 79%
    23:00 +6°C° 0 mm 9 m/s 743 mmHg 82%

    15 Dezembro, Sexta-feira

    Tempo Temperatura Precipitação Vento Pressão Humidade
    00:00 +6°C° 0 mm 9 m/s 743 mmHg 84%
    01:00 +6°C° 0 mm 9 m/s 742 mmHg 84%
    02:00 +6°C° 0 mm 9 m/s 741 mmHg 84%
    03:00 +5°C° 0 mm 8 m/s 741 mmHg 84%
    04:00 +6°C° 0 mm 9 m/s 740 mmHg 82%
    05:00 +6°C° 0 mm 9 m/s 740 mmHg 80%
    06:00 +6°C° 0 mm 9 m/s 739 mmHg 78%
    07:00 +6°C° 0 mm 9 m/s 739 mmHg 76%
    08:00 +7°C° 0 mm 10 m/s 739 mmHg 73%
    09:00 +8°C° 0 mm 10 m/s 738 mmHg 71%
    10:00 +9°C° 0 mm 10 m/s 738 mmHg 67%
    11:00 +9°C° 0 mm 10 m/s 737 mmHg 64%
    12:00 +11°C° 0 mm 9 m/s 737 mmHg 60%
    13:00 +9°C° 0 mm 10 m/s 737 mmHg 64%
    14:00 +9°C° 0 mm 10 m/s 737 mmHg 67%
    15:00 +8°C° 0 mm 10 m/s 737 mmHg 70%
    16:00 +7°C° 0 mm 10 m/s 737 mmHg 69%
    17:00 +6°C° 0 mm 10 m/s 737 mmHg 68%
    18:00 +3°C° 0 mm 11 m/s 738 mmHg 67%
    19:00 +3°C° 0 mm 11 m/s 738 mmHg 66%
    20:00 +2°C° 0 mm 11 m/s 738 mmHg 65%
    21:00 +1°C° 0 mm 11 m/s 739 mmHg 65%
    22:00 +1°C° 0 mm 11 m/s 739 mmHg 63%
    23:00 +1°C° 0 mm 11 m/s 739 mmHg 62%

    16 Dezembro, Sábado

    Tempo Temperatura Precipitação Vento Pressão Humidade
    00:00 +1°C° 0 mm 10 m/s 739 mmHg 60%
    01:00 +1°C° 0 mm 10 m/s 739 mmHg 58%
    02:00 +1°C° 0 mm 10 m/s 739 mmHg 57%
    03:00 +1°C° 0 mm 10 m/s 740 mmHg 55%
    04:00 0°C° 0 mm 10 m/s 740 mmHg 54%
    05:00 0°C° 0 mm 9 m/s 740 mmHg 53%
    06:00 0°C° 0 mm 8 m/s 741 mmHg 52%
    07:00 +1°C° 0 mm 8 m/s 741 mmHg 49%
    08:00 +2°C° 0 mm 8 m/s 742 mmHg 47%
    09:00 +4°C° 0 mm 7 m/s 742 mmHg 44%
    10:00 +5°C° 0 mm 6 m/s 742 mmHg 41%
    11:00 +8°C° 0 mm 6 m/s 742 mmHg 38%
    12:00 +9°C° 0 mm 5 m/s 742 mmHg 35%
    13:00 +8°C° 0 mm 4 m/s 743 mmHg 39%
    14:00 +7°C° 0 mm 4 m/s 743 mmHg 42%
    15:00 +8°C° 0 mm 3 m/s 743 mmHg 46%
    16:00 +5°C° 0 mm 4 m/s 744 mmHg 49%
    17:00 +4°C° 0 mm 4 m/s 745 mmHg 52%
    18:00 +3°C° 0 mm 4 m/s 745 mmHg 55%
    19:00 +1°C° 0 mm 4 m/s 746 mmHg 52%
    20:00 +1°C° 0 mm 4 m/s 746 mmHg 49%
    21:00 +1°C° 0 mm 4 m/s 747 mmHg 46%
    22:00 +1°C° 0 mm 4 m/s 747 mmHg 44%
    23:00 0°C° 0 mm 4 m/s 747 mmHg 42%

    17 Dezembro, Domingo

    Tempo Temperatura Precipitação Vento Pressão Humidade
    00:00 0°C° 0 mm 4 m/s 747 mmHg 40%
    01:00 0°C° 0 mm 4 m/s 747 mmHg 40%
    02:00 0°C° 0 mm 4 m/s 747 mmHg 39%
    03:00 0°C° 0 mm 4 m/s 747 mmHg 39%
    04:00 0°C° 0 mm 4 m/s 748 mmHg 39%
    05:00 0°C° 0 mm 4 m/s 748 mmHg 40%
    06:00 0°C° 0 mm 4 m/s 748 mmHg 41%
    07:00 +1°C° 0 mm 4 m/s 748 mmHg 42%
    08:00 +4°C° 0 mm 3 m/s 749 mmHg 44%
    09:00 +5°C° 0 mm 3 m/s 749 mmHg 45%
    10:00 +7°C° 0 mm 3 m/s 749 mmHg 49%
    11:00 +7°C° 0 mm 3 m/s 749 mmHg 52%
    12:00 +8°C° 0 mm 3 m/s 748 mmHg 55%
    13:00 +8°C° 0 mm 3 m/s 748 mmHg 59%
    14:00 +7°C° 0 mm 3 m/s 748 mmHg 62%
    15:00 +7°C° 0 mm 3 m/s 748 mmHg 65%
    16:00 +5°C° 0 mm 3 m/s 749 mmHg 68%
    17:00 +4°C° 0 mm 3 m/s 749 mmHg 71%
    18:00 +3°C° 0 mm 3 m/s 749 mmHg 74%
    19:00 +2°C° 0 mm 3 m/s 749 mmHg 73%
    20:00 +2°C° 0 mm 3 m/s 750 mmHg 72%
    21:00 +2°C° 0 mm 3 m/s 750 mmHg 71%
    22:00 +2°C° 0 mm 3 m/s 750 mmHg 70%
    23:00 +2°C° 0 mm 3 m/s 750 mmHg 68%
    Mostrar mais